Вернуться в каталог

FREGAT DEB

АктивенUNKNOWN
NORAD 46111·DEBRIS·🇷🇺 Russia

Запущен Jul 18, 2011 с Baikonur Cosmodrome

Loading…

Ближайшие Пролёты (ближайшие 24 часа)

TLE

СвежийSource: Space-Track

Эпоха: Sep 6, 2026, 16:51 UTC

1 46111U 11037JW  26249.70229689  .00010717  00000-0  28870+0 0  9991
2 46111  50.7520  20.9288 1292112 223.2994 125.8830 10.18717743184124

Отслеживайте FREGAT DEB в реальном времени с AllMySat

Download on the App Store